Vorticity
3 6 12 -2 15 7 15 9 5 3 4 -2 1 3 5 8 14 -0 2 4 3 4 5 6 10 11 10 10 9 8 6 6 6 13 4 3 5 5 6 4 3 4 4 6
0 8 5 4 4 9 3 8 -1 2 3 3 0 3 -2 4 14 13 19 6 5 2 4 5 5 8 10 10 8 8 7 8 10 3 2 3 3 6 5 5 4 3 4 4
2 13 6 1 -1 14 12 6 -2 1 3 -1 2 3 2 5 8 9 8 8 4 9 12 8 7 4 7 9 8 8 6 5 4 4 4 3 4 4 4 5 4 5 5 5
2 11 5 2 2 3 17 2 11 2 -5 3 3 4 1 3 4 -4 6 7 8 18 7 10 11 10 4 5 5 6 6 5 5 5 5 4 3 4 3 2 4 9 8 7
1 2 5 2 4 -6 -4 10 16 5 6 2 -1 1 7 -4 2 12 3 -2 11 4 -2 -0 4 6 8 5 5 4 5 6 6 5 5 4 3 3 8 17 14 10 8 6
7 5 4 10 -3 3 -11 -3 -2 8 4 1 5 -2 -2 -1 19 7 1 9 2 3 10 11 29 22 14 11 8 6 6 8 5 10 10 11 9 10 8 7 9 10 8 7
8 3 9 9 7 2 -0 1 0 1 8 5 2 -0 -2 23 11 19 5 1 2 6 3 2 3 13 12 1 -0 -0 3 4 11 12 5 7 10 10 7 7 6 4 6 4
12 5 12 1 9 -3 -4 4 3 -1 0 5 4 5 21 9 15 -1 2 3 8 4 11 6 3 1 9 12 22 18 10 5 9 7 6 3 6 4 4 2 -0 5 16 4
9 10 9 10 0 3 -4 -2 7 0 -3 2 2 6 -13 15 4 -3 -0 7 5 7 -1 3 3 4 9 13 17 25 4 12 4 7 14 14 14 14 11 5 4 1 8 13
17 16 18 0 3 2 -7 7 2 -2 2 -2 -4 -1 4 5 -1 12 -0 -2 1 3 8 1 0 0 -2 17 25 25 2 10 12 7 4 7 8 10 17 -10 8 2 9 4
14 16 27 8 -1 4 5 -0 -0 1 0 0 7 -4 -7 4 11 8 6 11 1 5 10 9 8 11 7 3 3 32 19 4 -1 8 2 -5 -2 -0 -3 40 14 -6 10 6
23 18 15 25 12 0 4 3 -7 1 -2 3 1 -1 1 -2 -2 -9 17 19 2 4 8 2 16 -3 10 13 8 15 -0 0 2 7 1 -4 -13 0 -23 -40 -3 28 4 8
16 21 20 15 21 22 5 -3 3 6 -3 -1 0 0 0 -4 2 5 15 25 -0 2 5 17 -5 -6 2 -3 12 4 3 -8 4 5 7 4 4 32 -16 6 24 7 -18 12
11 7 9 19 14 20 22 12 3 6 -4 -6 1 1 3 4 1 3 -4 24 3 1 -6 12 2 0 0 13 9 6 10 5 5 -2 -4 10 12 0 1 -2 6 51 22 -29
12 10 9 14 15 13 8 27 19 8 5 3 8 6 4 3 7 0 20 19 2 8 1 10 10 13 22 7 -17 8 15 1 14 10 6 7 9 5 5 2 6 9 21 27
13 10 11 13 14 16 16 11 14 20 16 8 6 2 6 6 9 18 23 6 1 13 14 2 10 11 14 16 13 2 -2 -0 -2 -4 0 2 12 2 5 0 2 13 -1 8
7 12 11 12 6 26 32 9 17 19 14 15 4 0 7 3 17 1 33 13 1 10 4 4 12 -0 4 11 -2 0 3 6 8 -5 -1 6 -0 9 6 0 13 1 24 13
-2 -2 4 15 6 7 30 18 23 17 16 17 8 12 10 7 16 27 9 5 10 -1 6 10 2 7 13 5 2 -2 0 2 3 2 -1 -6 5 -0 6 8 14 14 13 9
7 1 -6 -1 14 10 15 24 15 12 9 13 10 8 11 4 23 11 -0 0 -6 3 9 4 3 -1 -1 13 -6 5 -1 6 -4 5 5 5 5 1 -1 7 11 2 19 11
5 3 3 10 4 9 7 23 29 25 18 13 13 13 15 13 10 -0 5 4 -2 9 8 10 5 0 2 4 2 1 -4 -5 8 9 -3 26 15 4 16 15 4 18 19 -1
11 4 -2 -5 -1 20 11 9 18 17 24 15 15 11 9 10 13 3 6 1 4 16 15 -2 8 6 20 12 -14 11 3 2 -1 -2 2 -6 40 12 24 3 6 8 10 7
25 25 8 11 24 13 12 7 9 16 27 17 17 8 -0 3 21 13 18 7 5 7 14 25 26 16 1 -2 4 7 -2 2 2 0 2 1 4 32 7 1 5 5 8 8
13 18 9 -19 135 9 9 2 13 12 15 26 26 12 8 -2 -1 7 6 7 -7 -1 10 -29 32 0 1 5 7 4 10 3 30 -15 6 0 14 16 1 4 12 14 13 6
7 7 -1 15 49 -10 -6 1 4 15 15 5 24 13 -16 1 17 6 -5 17 9 15 -1 5 1 9 8 6 6 3 -1 -10 -2 20 -3 11 14 16 5 17 10 9 9 10
14 8 16 19 -22 56 10 4 10 9 15 15 15 4 2 4 35 16 17 8 7 -14 11 6 0 10 7 9 -1 9 15 7 14 37 14 8 -2 11 5 9 9 6 8 7
16 12 7 38 -12 7 45 31 6 14 5 8 2 8 -2 1 -0 20 6 5 4 12 2 3 8 5 26 -26 34 22 -9 37 19 11 16 21 7 5 6 5 8 2 4 7
Height
5874 5878 5881 5889 5896 5903 5905 5906 5909 5910 5910 5909 5910 5911 5911 5913 5912 5915 5915 5916 5918 5918 5919 5919 5920 5921 5923 5924 5924 5925 5925 5926 5926 5927 5928 5928 5927 5926 5925 5925 5924 5923 5923 5923
5868 5872 5881 5886 5890 5896 5901 5902 5905 5907 5907 5908 5907 5908 5910 5912 5913 5915 5917 5916 5917 5918 5918 5919 5919 5921 5921 5922 5923 5923 5924 5924 5925 5925 5926 5926 5926 5926 5925 5925 5924 5923 5923 5922
5863 5872 5875 5878 5883 5890 5895 5899 5901 5906 5905 5904 5904 5905 5907 5909 5911 5914 5915 5916 5917 5917 5918 5918 5918 5919 5920 5920 5921 5921 5921 5922 5923 5923 5924 5924 5925 5925 5925 5924 5922 5921 5920 5918
5856 5865 5867 5871 5875 5883 5891 5898 5900 5900 5902 5905 5904 5905 5904 5907 5909 5912 5914 5915 5915 5916 5917 5917 5917 5917 5917 5918 5918 5919 5920 5920 5920 5921 5922 5922 5922 5922 5922 5921 5919 5917 5916 5915
5849 5857 5860 5862 5870 5878 5887 5891 5895 5896 5897 5897 5899 5900 5903 5902 5905 5909 5911 5913 5914 5914 5914 5914 5914 5913 5913 5915 5916 5916 5916 5917 5918 5918 5917 5918 5918 5917 5916 5914 5912 5911 5911 5910
5839 5850 5851 5859 5867 5871 5877 5883 5886 5887 5888 5885 5894 5895 5900 5901 5906 5906 5907 5909 5910 5912 5913 5912 5910 5909 5910 5911 5913 5913 5914 5914 5914 5914 5913 5914 5913 5912 5910 5910 5909 5908 5907 5906
5827 5836 5845 5851 5857 5862 5866 5871 5875 5877 5874 5878 5889 5889 5897 5899 5901 5904 5905 5904 5906 5906 5907 5908 5908 5908 5908 5908 5909 5909 5911 5910 5910 5910 5909 5909 5909 5908 5906 5906 5905 5903 5902 5900
5819 5826 5832 5838 5845 5851 5856 5863 5863 5867 5870 5876 5881 5882 5893 5895 5896 5898 5899 5901 5901 5903 5904 5905 5905 5905 5906 5906 5905 5905 5906 5906 5906 5906 5906 5905 5904 5904 5903 5902 5900 5898 5896 5893
5807 5814 5827 5832 5840 5845 5849 5850 5864 5866 5866 5870 5870 5877 5884 5888 5892 5894 5896 5898 5900 5900 5901 5902 5902 5902 5902 5901 5900 5900 5901 5902 5903 5903 5902 5900 5900 5900 5897 5895 5892 5890 5889 5888
5799 5806 5817 5826 5832 5837 5840 5852 5853 5853 5856 5858 5861 5866 5875 5883 5888 5892 5893 5894 5896 5897 5897 5898 5898 5898 5898 5897 5896 5895 5897 5899 5898 5898 5897 5897 5896 5894 5889 5885 5887 5885 5882 5880
5790 5796 5807 5812 5815 5825 5829 5834 5839 5847 5849 5852 5857 5858 5869 5876 5882 5886 5889 5890 5891 5892 5893 5894 5894 5894 5893 5894 5894 5893 5894 5895 5895 5895 5894 5893 5890 5888 5885 5884 5886 5884 5876 5871
5780 5785 5791 5800 5808 5815 5821 5829 5836 5837 5841 5843 5848 5851 5861 5869 5874 5878 5881 5884 5886 5888 5889 5890 5890 5890 5890 5889 5890 5890 5890 5890 5890 5890 5888 5886 5883 5880 5879 5868 5873 5871 5869 5865
5771 5772 5780 5788 5793 5797 5804 5815 5821 5828 5835 5831 5839 5845 5855 5864 5866 5872 5875 5877 5880 5883 5885 5886 5886 5886 5885 5886 5886 5885 5886 5886 5886 5884 5882 5879 5877 5874 5873 5871 5865 5861 5855 5852
5761 5763 5769 5777 5789 5796 5794 5800 5807 5814 5817 5825 5824 5839 5844 5856 5860 5865 5869 5873 5874 5877 5880 5881 5882 5882 5882 5881 5881 5882 5882 5882 5880 5878 5876 5874 5871 5868 5865 5862 5859 5853 5850 5845
5751 5757 5762 5768 5778 5782 5786 5791 5797 5800 5808 5811 5823 5828 5838 5847 5853 5859 5863 5865 5867 5870 5873 5875 5876 5877 5877 5877 5877 5877 5877 5875 5874 5872 5870 5869 5866 5862 5858 5854 5851 5847 5845 5836
5744 5750 5755 5759 5766 5771 5775 5780 5785 5791 5798 5802 5813 5817 5830 5839 5844 5850 5856 5857 5860 5863 5866 5867 5869 5870 5871 5871 5871 5871 5870 5869 5868 5865 5863 5862 5860 5855 5850 5847 5843 5839 5837 5833
5736 5742 5746 5749 5758 5761 5759 5768 5775 5783 5788 5795 5800 5811 5823 5828 5835 5842 5847 5849 5852 5856 5858 5860 5861 5862 5862 5862 5861 5861 5861 5860 5859 5857 5856 5853 5850 5847 5843 5841 5837 5833 5830 5829
5726 5732 5737 5742 5747 5744 5756 5764 5767 5773 5781 5785 5792 5802 5811 5819 5826 5830 5836 5840 5843 5848 5850 5852 5853 5853 5853 5853 5852 5852 5851 5851 5850 5849 5845 5843 5841 5838 5835 5831 5828 5825 5822 5820
5717 5724 5729 5734 5737 5744 5747 5752 5757 5759 5767 5775 5784 5793 5801 5809 5815 5822 5828 5831 5835 5839 5842 5843 5844 5843 5844 5843 5844 5844 5843 5842 5840 5838 5836 5833 5832 5829 5826 5822 5819 5816 5812 5809
5708 5714 5722 5727 5730 5735 5744 5747 5750 5755 5756 5767 5776 5784 5793 5799 5806 5815 5820 5824 5827 5831 5833 5834 5834 5836 5836 5836 5835 5835 5834 5832 5830 5829 5827 5824 5821 5817 5813 5811 5808 5806 5802 5798
5699 5706 5712 5717 5721 5727 5734 5740 5745 5746 5755 5761 5769 5777 5785 5792 5799 5805 5810 5813 5817 5821 5824 5825 5826 5826 5827 5827 5826 5825 5824 5824 5821 5819 5816 5812 5812 5806 5802 5801 5797 5794 5792 5790
5692 5699 5703 5710 5712 5718 5727 5733 5737 5744 5748 5754 5762 5771 5777 5784 5789 5795 5799 5803 5806 5810 5812 5815 5816 5816 5816 5816 5816 5815 5814 5811 5809 5807 5805 5803 5802 5796 5792 5790 5785 5784 5782 5779
5683 5688 5693 5695 5695 5712 5719 5726 5731 5737 5743 5748 5756 5763 5770 5775 5780 5785 5789 5792 5795 5798 5801 5801 5802 5804 5804 5803 5803 5802 5798 5795 5792 5792 5792 5790 5787 5785 5782 5779 5776 5773 5770 5766
5675 5681 5685 5690 5696 5703 5709 5718 5723 5728 5735 5741 5747 5754 5760 5766 5771 5775 5779 5782 5786 5788 5790 5791 5793 5793 5791 5790 5789 5786 5782 5786 5782 5781 5779 5775 5774 5773 5770 5768 5765 5761 5759 5756
5668 5673 5678 5683 5687 5687 5699 5707 5714 5720 5726 5733 5738 5745 5751 5757 5761 5764 5767 5771 5774 5777 5778 5780 5780 5779 5778 5777 5778 5773 5772 5769 5771 5769 5765 5762 5761 5761 5758 5756 5752 5749 5747 5744
5658 5663 5670 5674 5682 5685 5692 5699 5708 5713 5718 5724 5729 5734 5739 5745 5749 5753 5756 5761 5764 5765 5767 5769 5768 5766 5765 5763 5763 5760 5759 5759 5759 5754 5753 5751 5750 5748 5745 5742 5740 5736 5733 5730